P/2015 F1 ( PanSTARRS )

Japanese version
Home page
Updated on August 9, 2016

---------------------------------------------------------------------

* Profile

Discovery Date March 21, 2015
Magnitude 19.1 mag
Discoverer Pan-STARRS 1 telescope (Haleakala)

* Pictures

* Orbital Elements

Epoch 2015 Feb. 27.0 TT = JDT 2457080.5
T 2015 Mar. 14.91753 TT                                 MPCW
q   2.5415909            (2000.0)            P               Q
n   0.14917943     Peri.  187.12840     -0.67493455     +0.73719506
a   3.5209789      Node    40.43002     -0.67455144     -0.59901037
e   0.2781579      Incl.    2.80443     -0.29907141     -0.31261801
P   6.61
From 194 observations 2015 Mar. 21-Aug. 16, mean residual 0".5.

* Magnitudes Graph

        m1 = 11.8 + 5 log d + 10.0 log r

---------------------------------------------------------------------

The orbital elements are published on M.P.E.C. 2015-Q71.
The magnitudes graphs are made with Comet for Windows.

---------------------------------------------------------------------

Copyright(C) Seiichi Yoshida (comet@aerith.net). All rights reserved.